Weather History for Resolute, NU

Change the Weather History Date:

Thursday, September 19, 2013

  Actual Average Record
Temperature  
Mean Temperature 21 °F -  
Max Temperature 23 °F 25 °F 37 °F (1998)
Min Temperature 19 °F 19 °F 12 °F (2000)
Degree Days  
Heating Degree Days 44    
Moisture  
Dew Point 19 °F    
Average Humidity 91    
Maximum Humidity 100    
Minimum Humidity 85    
Precipitation  
Precipitation 0.00 in - - ()
Sea Level Pressure  
Sea Level Pressure 30.16 in    
Wind  
Wind Speed 12 mph ()    
Max Wind Speed 16 mph    
Max Gust Speed -    
Visibility 12.1 miles    
Events Fog , Snow    
Averages and records for this station are not official NWS values.
T = Trace of Precipitation, MM = Missing Value Source: Averaged Metar Reports

Daily Weather History Graph

Daily Weather History Graph

Search for Another Location

Airport:

Trip Planner

Search our weather history database for the weather conditions in past years. The results will help you decide how hot, cold, wet, or windy it might be!

Date:

Astronomy

Sep. 19, 2013 Rise Set
Actual Time 6:41 AM CDT 7:42 PM CDT
Civil Twilight 5:18 AM CDT 9:04 PM CDT
Nautical Twilight 3:08 AM CDT 11:08 PM CDT
Astronomical Twilight Sun does not rise Sun does not rise
Moon 6:34 PM CDT (9/19) 7:36 AM CDT (9/19)
Length of Visible Light 15h 45m
Length of Day
13h 00m
Full, 100% of the Moon is Illuminated
Sep 19
Full
Sep 26
Last Quarter
Oct 4
New
Oct 11
First Quarter
Oct 18
Full

Hourly Weather History & Observations

Time (CDT) Temp. Windchill Dew Point Humidity Pressure Visibility Wind Dir Wind Speed Gust Speed Precip Events Conditions
12:00 AM 21.2 °F 7.3 °F 17.6 °F 86% 30.14 in 15.0 mi NNW 16.1 mph - N/A   Overcast
1:00 AM 20 °F - 18 °F 86% 30.14 in 15 mi NW 15.0 mph - -   Partly Cloudy
1:00 AM 19.4 °F 5.5 °F 17.6 °F 93% 30.14 in 15.0 mi NW 15.0 mph - N/A   Overcast
2:00 AM 19.4 °F 6.6 °F 17.6 °F 93% 30.14 in 15.0 mi NW 12.7 mph - N/A   Overcast
2:47 AM - - - N/A% - 15.0 mi NW 12.7 mph - N/A Snow Light Snow Grains
3:00 AM 19.4 °F 5.0 °F 17.6 °F 93% 30.14 in 12.0 mi NW 16.1 mph - N/A Snow Light Snow Grains
4:00 AM 19.4 °F 8.6 °F 17.6 °F 93% 30.14 in 15.0 mi NW 9.2 mph - N/A Snow Light Snow Grains
5:00 AM 19.4 °F 5.5 °F 17.6 °F 93% 30.14 in 15.0 mi NW 15.0 mph - N/A Snow Light Snow Grains
6:00 AM 21.2 °F 7.3 °F 17.6 °F 86% 30.14 in 15.0 mi NW 16.1 mph - N/A Snow Light Snow Grains
7:00 AM 20 °F - 18 °F 87% 30.14 in 15 mi WNW 11.5 mph - - Snow Snow
7:00 AM 21.2 °F 9.5 °F 17.6 °F 86% 30.14 in 15.0 mi WNW 11.5 mph - N/A Snow Light Snow Grains
7:49 AM - - - N/A% - 15.0 mi NW 12.7 mph - N/A   Overcast
8:00 AM 21.2 °F 7.8 °F 17.6 °F 86% 30.15 in 15.0 mi NW 15.0 mph - N/A   Overcast
9:00 AM 21.2 °F 8.9 °F 17.6 °F 86% 30.15 in 15.0 mi NW 12.7 mph - N/A   Mostly Cloudy
10:00 AM 21.2 °F 7.3 °F 17.6 °F 86% 30.15 in 15.0 mi NW 16.1 mph - N/A   Mostly Cloudy
11:00 AM 21.2 °F 8.9 °F 17.6 °F 86% 30.15 in 15.0 mi NNW 12.7 mph - N/A   Overcast
11:11 AM - - - N/A% - 15.0 mi NNW 13.8 mph - N/A   Light Freezing Drizzle
11:30 AM - - - N/A% - 15.0 mi NNW 12.7 mph - N/A   Mostly Cloudy
12:00 PM 21.2 °F 9.5 °F 17.6 °F 86% 30.16 in 15.0 mi NW 11.5 mph - N/A   Scattered Clouds
1:00 PM 22 °F - 19 °F 85% 30.16 in 15 mi NW 10.4 mph - -   Partly Cloudy
1:00 PM 23.0 °F 12.4 °F 19.4 °F 86% 30.16 in 15.0 mi NW 10.4 mph - N/A   Overcast
1:32 PM - - - N/A% - 10.0 mi NW 11.5 mph - N/A   Light Freezing Drizzle
2:00 PM 23.0 °F 10.1 °F 21.2 °F 93% 30.17 in 10.0 mi WNW 15.0 mph - N/A   Light Freezing Drizzle
2:11 PM - - - N/A% - 10.0 mi WNW 12.7 mph - N/A   Light Freezing Drizzle
2:47 PM - - - N/A% - 15.0 mi NW 11.5 mph - N/A   Unknown
3:00 PM 23.0 °F 11.7 °F 21.2 °F 93% 30.17 in 10.0 mi NW 11.5 mph - N/A Snow Light Snow
4:00 PM 23.0 °F 12.4 °F 21.2 °F 93% 30.18 in 15.0 mi West 10.4 mph - N/A   Mostly Cloudy
4:31 PM - - - N/A% - 10.0 mi WNW 12.7 mph - N/A   Light Freezing Drizzle
5:00 PM 21.2 °F 9.5 °F 21.2 °F 100% 30.18 in 10.0 mi WNW 11.5 mph - N/A   Light Freezing Drizzle
5:20 PM - - - N/A% - 5.0 mi WNW 15.0 mph - N/A Fog , Snow Light Snow Grains
6:00 PM 21.2 °F 9.5 °F 21.2 °F 100% 30.18 in 5.0 mi WNW 11.5 mph - N/A Snow Light Snow Grains
7:00 PM 21 °F - 20 °F 96% 30.18 in 5 mi West 12.7 mph - - Snow Snow Grains
7:00 PM 21.2 °F 9.5 °F 21.2 °F 100% 30.18 in 5.0 mi West 11.5 mph - N/A Snow Light Snow Grains
8:00 PM 21.2 °F 8.9 °F 19.4 °F 93% 30.18 in 10.0 mi West 12.7 mph - N/A   Light Freezing Drizzle
9:00 PM 21.2 °F 8.9 °F 19.4 °F 93% 30.18 in 5.0 mi West 12.7 mph - N/A   Light Freezing Drizzle
10:00 PM 21.2 °F 10.9 °F 19.4 °F 93% 30.17 in 5.0 mi West 9.2 mph - N/A   Light Freezing Drizzle
11:00 PM 19.4 °F 7.9 °F 19.4 °F 100% 30.17 in 4.0 mi SW 10.4 mph - N/A   Light Freezing Drizzle